| time (UTC) | temp C | wind direction | speed KPH | gust KPH | rain 1hr cm | rain 24hr cm | rain mn cm | humidity % | barometer mb |
| 20260504204636 | 15 | 175 | 0.0 | 3.2 | 0.00 | 0.00 | 0.00 | 100 | 1017.0 |
| 20260504203634 | 15 | 74 | 1.6 | 6.4 | 0.00 | 0.00 | 0.00 | 100 | 1017.0 |
| 20260504202634 | 14 | 90 | 0.0 | 3.2 | 0.00 | 0.00 | 0.00 | 100 | 1016.7 |
| 20260504201632 | 13 | 90 | 0.0 | 3.2 | 0.00 | 0.00 | 0.00 | 100 | 1016.3 |
| 20260504200630 | 13 | 90 | 0.0 | 4.8 | 0.00 | 0.00 | 0.00 | 100 | 1016.0 |
| 20260504195630 | 13 | 90 | 0.0 | 4.8 | 0.00 | 0.00 | 0.00 | 100 | 1015.7 |
| 20260504194628 | 13 | 83 | 1.6 | 4.8 | 0.00 | 0.00 | 0.00 | 100 | 1015.4 |
| 20260504193626 | 13 | 49 | 0.0 | 3.2 | 0.00 | 0.00 | 0.00 | 100 | 1015.1 |
| 20260504192626 | 13 | 67 | 0.0 | 8.0 | 0.00 | 0.00 | 0.00 | 100 | 1014.8 |
| 20260504191625 | 13 | 125 | 1.6 | 3.2 | 0.00 | 0.00 | 0.00 | 100 | 1014.6 |
| 20260504190622 | 13 | 81 | 3.2 | 6.4 | 0.00 | 0.00 | 0.00 | 100 | 1014.7 |
| 20260504185621 | 14 | 119 | 3.2 | 6.4 | 0.00 | 0.00 | 0.00 | 100 | 1014.4 |
| 20260504184619 | 14 | 76 | 4.8 | 4.8 | 0.00 | 0.00 | 0.00 | 100 | 1014.2 |
| 20260504183618 | 14 | 152 | 0.0 | 6.4 | 0.00 | 0.00 | 0.00 | 100 | 1014.3 |
| 20260504182617 | 14 | 90 | 0.0 | 4.8 | 0.00 | 0.00 | 0.00 | 100 | 1014.0 |
| 20260504181615 | 14 | 144 | 0.0 | 4.8 | 0.00 | 0.00 | 0.00 | 100 | 1013.8 |
| 20260504180614 | 14 | 213 | 1.6 | 4.8 | 0.00 | 0.00 | 0.00 | 100 | 1013.6 |
| 20260504175613 | 14 | 199 | 1.6 | 4.8 | 0.00 | 0.00 | 0.00 | 100 | 1013.3 |
| 20260504174611 | 14 | 85 | 3.2 | 4.8 | 0.00 | 0.00 | 0.00 | 100 | 1013.0 |
| 20260504173610 | 14 | 120 | 1.6 | 3.2 | 0.00 | 0.00 | 0.00 | 100 | 1012.7 |
| 20260504172609 | 14 | 187 | 1.6 | 4.8 | 0.00 | 0.00 | 0.00 | 100 | 1012.4 |
| 20260504171607 | 14 | 45 | 1.6 | 6.4 | 0.00 | 0.00 | 0.00 | 100 | 1012.1 |
| 20260504170606 | 14 | 257 | 4.8 | 6.4 | 0.00 | 0.00 | 0.00 | 100 | 1011.8 |
| 20260504150549 | 16 | 153 | 3.2 | 8.0 | 0.00 | 0.00 | 0.33 | 100 | 1008.8 |
| 20260504140541 | 17 | 85 | 0.0 | 9.7 | 0.00 | 0.00 | 0.33 | 100 | 1007.6 |
| 20260504130535 | 19 | 132 | 1.6 | 4.8 | 0.00 | 0.00 | 0.33 | 100 | 1006.1 |
| 20260504110517 | 21 | 58 | 3.2 | 6.4 | 0.00 | 0.00 | 0.33 | 100 | 1002.4 |
| 20260504100509 | 23 | 85 | 1.6 | 6.4 | 0.00 | 0.00 | 0.33 | 100 | 1000.3 |
| 20260504081454 | 24 | 198 | 4.8 | 22.5 | 0.00 | 0.00 | 0.33 | 100 | 996.5 |
| 20260504080452 | 24 | 208 | 14.5 | 22.5 | 0.00 | 0.00 | 0.33 | 100 | 996.2 |
| 20260504050428 | 25 | 229 | 20.9 | 29.0 | 0.00 | 0.00 | 0.30 | 100 | 994.4 |
| 20260504045426 | 25 | 202 | 17.7 | 27.4 | 0.00 | 0.00 | 0.30 | 100 | 994.3 |
| 20260504043423 | 26 | 215 | 12.9 | 32.2 | 0.00 | 0.00 | 0.30 | 100 | 994.7 |
| 20260504042422 | 27 | 225 | 29.0 | 30.6 | 0.00 | 0.00 | 0.30 | 100 | 994.9 |
| 20260504041421 | 27 | 227 | 22.5 | 29.0 | 0.00 | 0.00 | 0.30 | 100 | 995.0 |
| 20260504040420 | 27 | 227 | 25.7 | 35.4 | 0.00 | 0.00 | 0.30 | 100 | 995.1 |
| 20260504035418 | 27 | 231 | 17.7 | 29.0 | 0.00 | 0.00 | 0.30 | 100 | 995.2 |
| 20260504034417 | 27 | 222 | 14.5 | 19.3 | 0.00 | 0.00 | 0.30 | 100 | 995.5 |
| 20260504033415 | 27 | 234 | 20.9 | 24.1 | 0.00 | 0.00 | 0.30 | 100 | 995.5 |
| 20260504032414 | 27 | 220 | 27.4 | 27.4 | 0.00 | 0.00 | 0.30 | 100 | 995.2 |
| 20260504031413 | 27 | 102 | 9.7 | 19.3 | 0.00 | 0.00 | 0.30 | 100 | 995.5 |
| 20260504030412 | 27 | 189 | 8.0 | 27.4 | 0.00 | 0.00 | 0.30 | 100 | 995.6 |
| 20260504025410 | 27 | 220 | 14.5 | 25.7 | 0.00 | 0.00 | 0.30 | 100 | 995.7 |
| 20260504021405 | 29 | 209 | 17.7 | 20.9 | 0.00 | 0.00 | 0.30 | 100 | 995.7 |
| 20260504020403 | 29 | 217 | 3.2 | 11.3 | 0.00 | 0.00 | 0.30 | 100 | 995.9 |
| 20260504015402 | 29 | 83 | 1.6 | 4.8 | 0.00 | 0.00 | 0.30 | 100 | 996.2 |
| 20260504014400 | 28 | 90 | 0.0 | 3.2 | 0.00 | 0.00 | 0.30 | 100 | 996.3 |
| 20260504013359 | 28 | 56 | 3.2 | 6.4 | 0.00 | 0.00 | 0.30 | 100 | 996.1 |
| 20260504012358 | 28 | 75 | 0.0 | 3.2 | 0.00 | 0.00 | 0.30 | 100 | 996.2 |
| 20260504011356 | 27 | 90 | 1.6 | 4.8 | 0.00 | 0.00 | 0.30 | 100 | 996.5 |
| 20260504010355 | 27 | 74 | 3.2 | 3.2 | 0.00 | 0.00 | 0.30 | 100 | 996.4 |
| 20260504005354 | 26 | 211 | 0.0 | 3.2 | 0.00 | 0.00 | 0.30 | 100 | 996.6 |
| 20260504004352 | 25 | 45 | 0.0 | 0.0 | 0.00 | 0.00 | 0.30 | 100 | 996.8 |
| 20260504003351 | 23 | 76 | 0.0 | 1.6 | 0.00 | 0.00 | 0.30 | 100 | 996.9 |
| 20260504002349 | 23 | 90 | 0.0 | 0.0 | 0.00 | 0.00 | 0.30 | 100 | 996.9 |
| 20260504000342 | 22 | 139 | 0.0 | 0.0 | 0.00 | 0.00 | 0.30 | 100 | 996.7 |
| 20260503235340 | 21 | 45 | 0.0 | 0.0 | 0.00 | 0.00 | 0.30 | 100 | 996.9 |
| 20260503234339 | 21 | 148 | 0.0 | 0.0 | 0.00 | 0.00 | 0.30 | 100 | 996.8 |
| 20260503233338 | 20 | 45 | 0.0 | 0.0 | 0.00 | 0.00 | 0.30 | 100 | 997.1 |
| 20260503232336 | 21 | 90 | 0.0 | 0.0 | 0.00 | 0.00 | 0.30 | 100 | 996.9 |
| 20260503231335 | 21 | 225 | 0.0 | 1.6 | 0.00 | 0.00 | 0.30 | 100 | 997.1 |
| 20260503230334 | 21 | 135 | 0.0 | 0.0 | 0.00 | 0.00 | 0.30 | 100 | 997.1 |
| 20260503225332 | 21 | 112 | 0.0 | 1.6 | 0.00 | 0.00 | 0.30 | 100 | 997.0 |
| 20260503224331 | 21 | 90 | 0.0 | 0.0 | 0.00 | 0.00 | 0.30 | 100 | 997.0 |
| 20260503223330 | 22 | 90 | 0.0 | 3.2 | 0.00 | 0.00 | 0.30 | 100 | 997.0 |
| 20260503222328 | 22 | 216 | 20.9 | 25.7 | 0.00 | 0.00 | 0.30 | 100 | 996.6 |
| 20260503221327 | 21 | 238 | 17.7 | 33.8 | 0.00 | 0.00 | 0.30 | 100 | 996.2 |
| 20260503220326 | 21 | 270 | 19.3 | 33.8 | 0.00 | 0.00 | 0.30 | 100 | 996.3 |
| 20260503215324 | 21 | 220 | 22.5 | 49.9 | 0.00 | 0.00 | 0.30 | 100 | 996.1 |
| 20260503214323 | 21 | 218 | 38.6 | 38.6 | 0.00 | 0.00 | 0.30 | 100 | 995.9 |
| 20260503213322 | 21 | 202 | 19.3 | 37.0 | 0.00 | 0.00 | 0.30 | 100 | 995.8 |
| 20260503212320 | 20 | 229 | 25.7 | 33.8 | 0.00 | 0.00 | 0.30 | 100 | 996.2 |
| 20260503211319 | 20 | 227 | 45.1 | 49.9 | 0.00 | 0.00 | 0.28 | 100 | 995.8 |
| 20260503210317 | 20 | 231 | 35.4 | 45.1 | 0.00 | 0.00 | 0.28 | 100 | 995.4 |